Altoona, PA

2:10 PM EDT on August 17, 2019 (GMT -0400)
Altoona-Blair County

Weather History for KAOO - May, 2019

Change the Weather History Date:

Saturday, May 11, 2019

  Actual Average Record
Temperature  
Mean Temperature 56 °F 57 °F  
Max Temperature 63 °F 68 °F 86 °F (1948)
Min Temperature 48 °F 46 °F 25 °F (2001)
Degree Days  
Heating Degree Days 9 9  
Month to date heating degree days 34 111  
Since 1 July heating degree days 5588 6029  
Cooling Degree Days 0 1  
Month to date cooling degree days 8 1  
Year to date cooling degree days 8 7  
Growing Degree Days 5 (Base 50)    
Moisture  
Dew Point 44 °F    
Average Humidity 66    
Maximum Humidity 93    
Minimum Humidity 39    
Precipitation  
Precipitation 0.56 in 0.12 in 1.88 in (1981)
Month to date precipitation 2.57 1.27  
Year to date precipitation 15.38 11.74  
Sea Level Pressure  
Sea Level Pressure 30.01 in    
Wind  
Wind Speed 6 mph (NE)    
Max Wind Speed 14 mph    
Max Gust Speed 18 mph    
Visibility 7 miles    
Events Rain    
T = Trace of Precipitation, MM = Missing Value Source: NWS Daily Summary

Daily Weather History Graph

Daily Weather History Graph

Search for Another Location

Airport or City:

Astronomy

May. 11, 2019 Rise Set
Actual Time 6:01 AM EDT 8:18 PM EDT
Civil Twilight 5:31 AM EDT 8:48 PM EDT
Nautical Twilight 4:53 AM EDT 9:26 PM EDT
Astronomical Twilight 4:12 AM EDT 10:08 PM EDT
Moon 12:07 PM EDT (5/11) 1:58 AM EDT (5/11)
Length of Visible Light 15h 17m
Length of Day
14h 16m
Waxing Crescent, 46% of the Moon is Illuminated
May 11
Waxing Crescent
May 11
First Quarter
May 18
Full
May 26
Last Quarter
Jun 3
New

Hourly Weather History & Observations

Time (EDT) Temp. Dew Point Humidity Pressure Visibility Wind Dir Wind Speed Gust Speed Precip Events Conditions
12:53 AM 55.9 °F 48.0 °F 75% 30.06 in 10.0 mi NW 9.2 mph - N/A   Overcast
1:53 AM 54.0 °F 46.0 °F 75% 30.05 in 10.0 mi NW 9.2 mph - N/A   Overcast
2:53 AM 53.1 °F 44.1 °F 71% 30.06 in 10.0 mi NW 9.2 mph - N/A   Overcast
3:53 AM 51.1 °F 42.1 °F 71% 30.07 in 10.0 mi NW 11.5 mph - N/A   Overcast
4:19 AM 51.1 °F 41.0 °F 68% 30.09 in 10.0 mi NNW 11.5 mph - N/A   Overcast
4:53 AM 50.0 °F 41.0 °F 71% 30.08 in 10.0 mi NNW 9.2 mph - N/A   Scattered Clouds
5:53 AM 48.9 °F 39.9 °F 71% 30.09 in 10.0 mi NNW 5.8 mph - N/A   Scattered Clouds
6:53 AM 48.0 °F 39.9 °F 74% 30.11 in 10.0 mi North 6.9 mph - N/A   Clear
7:53 AM 50.0 °F 39.9 °F 68% 30.10 in 10.0 mi North 6.9 mph - N/A   Clear
8:53 AM 52.0 °F 37.9 °F 59% 30.10 in 10.0 mi North 6.9 mph - N/A   Clear
9:53 AM 53.1 °F 37.0 °F 55% 30.11 in 10.0 mi North 4.6 mph - N/A   Clear
10:53 AM 55.9 °F 37.9 °F 51% 30.09 in 10.0 mi NNE 10.4 mph - N/A   Clear
11:53 AM 57.9 °F 37.0 °F 46% 30.09 in 10.0 mi Variable 3.5 mph - N/A   Mostly Cloudy
12:53 PM 61.0 °F 37.9 °F 42% 30.06 in 10.0 mi Variable 4.6 mph - N/A   Clear
1:53 PM 62.1 °F 37.0 °F 39% 30.04 in 10.0 mi Variable 3.5 mph - N/A   Overcast
2:53 PM 62.1 °F 39.0 °F 43% 30.02 in 10.0 mi Variable 4.6 mph - N/A   Overcast
3:53 PM 61.0 °F 37.0 °F 41% 30.00 in 10.0 mi SE 4.6 mph - N/A   Overcast
4:53 PM 59.0 °F 42.1 °F 53% 29.99 in 10.0 mi SE 4.6 mph - 0.01 in Rain Light Rain
5:53 PM 55.0 °F 46.9 °F 74% 29.99 in 10.0 mi NNE 4.6 mph - 0.00 in Rain Light Rain
6:53 PM 54.0 °F 45.0 °F 72% 29.98 in 10.0 mi East 8.1 mph - 0.00 in   Overcast
7:53 PM 51.1 °F 46.0 °F 83% 29.98 in 10.0 mi NE 6.9 mph - 0.01 in   Overcast
8:00 PM 51.1 °F 45.0 °F 80% 29.96 in 6.0 mi NE 5.8 mph - 0.00 in Rain Light Rain
8:53 PM 50.0 °F 48.0 °F 93% 29.97 in 3.0 mi NE 5.8 mph - 0.05 in Rain Light Rain
9:04 PM 50.0 °F 48.0 °F 93% 29.95 in 4.0 mi NE 4.6 mph - 0.02 in Rain Rain
9:35 PM 50.0 °F 48.0 °F 93% 29.95 in 3.0 mi NE 5.8 mph - 0.13 in Rain Rain
9:48 PM 50.0 °F 48.2 °F 94% 29.95 in 3.0 mi ENE 4.6 mph - 0.17 in Rain Rain
9:53 PM 50.0 °F 48.0 °F 93% 29.97 in 3.0 mi NE 5.8 mph - 0.18 in Rain Rain
9:58 PM 50.0 °F 48.0 °F 93% 29.96 in 2.5 mi NE 4.6 mph - 0.02 in Rain Rain
10:11 PM 50.0 °F 48.0 °F 93% 29.95 in 1.8 mi East 8.1 mph - 0.11 in Rain Heavy Rain
10:16 PM 50.0 °F 48.0 °F 93% 29.96 in 3.0 mi ENE 4.6 mph - 0.12 in Rain Rain
10:23 PM 50.0 °F 48.0 °F 93% 29.96 in 4.0 mi ENE 4.6 mph - 0.12 in Rain Light Rain
10:30 PM 50.0 °F 48.0 °F 93% 29.95 in 4.0 mi East 5.8 mph - 0.13 in Rain Light Rain
10:53 PM 50.0 °F 48.0 °F 93% 29.96 in 3.0 mi ENE 4.6 mph - 0.17 in Rain Rain
11:18 PM 50.0 °F 46.9 °F 89% 29.93 in 3.0 mi East 8.1 mph - 0.03 in Rain Light Rain
11:26 PM 50.0 °F 48.0 °F 93% 29.92 in 4.0 mi East 8.1 mph - 0.03 in Rain Light Rain
11:53 PM 50.0 °F 48.0 °F 93% 29.94 in 4.0 mi ESE 3.5 mph - 0.04 in   Overcast